owner,sensor,date,latitude,longitude,vertical_datum,wind_speed,wind_to_direction,wind_speed_of_gust,qcFlag 
TCOON,ioos:station:TCOON:518:1,2014-01-01T00:00:00Z,29.5150,-94.5133,0.0,0.0,280.0,0.0,'11111222,11111222,11111222' 
TCOON,ioos:station:TCOON:518:1,2014-01-01T00:06:00Z,29.5150,-94.5133,0.0,0.0,280.0,0.0,'1114422,1111122,1114422' 
TCOON,ioos:station:TCOON:518:1,2014-01-01T00:12:00Z,29.5150,-94.5133,0.0,0.0,251.0,0.0,'11111222,11111222,11111222' 
TCOON,ioos:station:TCOON:518:1,2014-01-01T00:18:00Z,29.5150,-94.5133,0.0,0.0,251.0,0.0,'11111222,11111222,11111222' 
TCOON,ioos:station:TCOON:518:1,2014-01-01T00:24:00Z,29.5150,-94.5133,0.0,0.0,297.0,0.0,'11111222,11111222,11111222' 
TCOON,ioos:station:TCOON:518:1,2014-01-01T00:30:00Z,29.5150,-94.5133,0.0,0.0,21.0,0.0,'11111222,11111222,11111222' 
TCOON,ioos:station:TCOON:518:1,2014-01-01T00:36:00Z,29.5150,-94.5133,0.0,0.0,21.0,0.0,'1114422,1111122,1114422' 
TCOON,ioos:station:TCOON:518:1,2014-01-01T00:42:00Z,29.5150,-94.5133,0.0,2.1,88.0,2.4,'11111222,11111222,11111222' 
TCOON,ioos:station:TCOON:518:1,2014-01-01T00:48:00Z,29.5150,-94.5133,0.0,2.2,91.0,2.6,'11111222,11111222,11111222' 
TCOON,ioos:station:TCOON:518:1,2014-01-01T00:54:00Z,29.5150,-94.5133,0.0,2.3,81.0,2.7,'11111222,11111222,11111222' 
TCOON,ioos:station:TCOON:518:1,2014-01-01T01:00:00Z,29.5150,-94.5133,0.0,2.6,63.0,2.8,'11111222,11111222,11111222' 
TCOON,ioos:station:TCOON:518:1,2014-01-01T01:06:00Z,29.5150,-94.5133,0.0,2.6,63.0,2.8,'1111122,1111122,1111122' 
TCOON,ioos:station:TCOON:518:1,2014-01-01T01:12:00Z,29.5150,-94.5133,0.0,1.5,50.0,2.1,'11111222,11111222,11111222' 
TCOON,ioos:station:TCOON:518:1,2014-01-01T01:18:00Z,29.5150,-94.5133,0.0,1.2,61.0,1.8,'11111222,11111222,11111222' 
TCOON,ioos:station:TCOON:518:1,2014-01-01T01:24:00Z,29.5150,-94.5133,0.0,1.3,85.0,1.8,'11111222,11111222,11111222' 
TCOON,ioos:station:TCOON:518:1,2014-01-01T01:30:00Z,29.5150,-94.5133,0.0,0.6,84.0,1.3,'11111222,11111222,11111222' 
TCOON,ioos:station:TCOON:518:1,2014-01-01T01:36:00Z,29.5150,-94.5133,0.0,0.6,84.0,1.3,'1111122,1111122,1111122' 
TCOON,ioos:station:TCOON:518:1,2014-01-01T01:42:00Z,29.5150,-94.5133,0.0,1.5,62.0,1.9,'11111222,11111222,11111222' 
TCOON,ioos:station:TCOON:518:1,2014-01-01T01:48:00Z,29.5150,-94.5133,0.0,2.2,65.0,2.4,'11111222,11111222,11111222' 
TCOON,ioos:station:TCOON:518:1,2014-01-01T01:54:00Z,29.5150,-94.5133,0.0,1.8,43.0,2.3,'11111222,11111222,11111222' 
TCOON,ioos:station:TCOON:518:1,2014-01-01T02:00:00Z,29.5150,-94.5133,0.0,1.9,34.0,2.4,'11111222,11111222,11111222' 
TCOON,ioos:station:TCOON:518:1,2014-01-01T02:06:00Z,29.5150,-94.5133,0.0,1.9,34.0,2.4,'1111122,1111122,1111122' 
TCOON,ioos:station:TCOON:518:1,2014-01-01T02:12:00Z,29.5150,-94.5133,0.0,2.3,71.0,2.6,'11111222,11111222,11111222' 
TCOON,ioos:station:TCOON:518:1,2014-01-01T02:18:00Z,29.5150,-94.5133,0.0,2.3,60.0,2.6,'11111222,11111222,11111222' 
TCOON,ioos:station:TCOON:518:1,2014-01-01T02:24:00Z,29.5150,-94.5133,0.0,2.1,52.0,2.4,'11111222,11111222,11111222' 
TCOON,ioos:station:TCOON:518:1,2014-01-01T02:30:00Z,29.5150,-94.5133,0.0,2.1,73.0,2.4,'11111222,11111222,11111222' 
TCOON,ioos:station:TCOON:518:1,2014-01-01T02:36:00Z,29.5150,-94.5133,0.0,2.1,73.0,2.4,'1111122,1111122,1111122' 
TCOON,ioos:station:TCOON:518:1,2014-01-01T02:42:00Z,29.5150,-94.5133,0.0,3.1,78.0,3.4,'11111222,11111222,11111222' 
TCOON,ioos:station:TCOON:518:1,2014-01-01T02:48:00Z,29.5150,-94.5133,0.0,2.9,71.0,3.5,'11111222,11111222,11111222' 
TCOON,ioos:station:TCOON:518:1,2014-01-01T02:54:00Z,29.5150,-94.5133,0.0,3.1,79.0,4.0,'11111222,11111222,11111222' 
TCOON,ioos:station:TCOON:518:1,2014-01-01T03:00:00Z,29.5150,-94.5133,0.0,3.1,79.0,4.0,'1111122,1111122,1111122' 
TCOON,ioos:station:TCOON:518:1,2014-01-01T03:06:00Z,29.5150,-94.5133,0.0,3.8,73.0,4.2,'11111222,11111222,11111222' 
TCOON,ioos:station:TCOON:518:1,2014-01-01T03:12:00Z,29.5150,-94.5133,0.0,3.8,70.0,4.4,'11111222,11111222,11111222' 
TCOON,ioos:station:TCOON:518:1,2014-01-01T03:18:00Z,29.5150,-94.5133,0.0,3.3,55.0,4.4,'11111222,11111222,11111222' 
TCOON,ioos:station:TCOON:518:1,2014-01-01T03:24:00Z,29.5150,-94.5133,0.0,2.9,42.0,3.3,'11111222,11111222,11111222' 
TCOON,ioos:station:TCOON:518:1,2014-01-01T03:30:00Z,29.5150,-94.5133,0.0,3.0,45.0,3.6,'11111222,11111222,11111222' 
TCOON,ioos:station:TCOON:518:1,2014-01-01T03:36:00Z,29.5150,-94.5133,0.0,3.0,45.0,3.6,'1111122,1111122,1111122' 
TCOON,ioos:station:TCOON:518:1,2014-01-01T03:42:00Z,29.5150,-94.5133,0.0,3.5,50.0,4.2,'11111222,11111222,11111222' 
TCOON,ioos:station:TCOON:518:1,2014-01-01T03:48:00Z,29.5150,-94.5133,0.0,4.0,51.0,4.6,'11111222,11111222,11111222' 
TCOON,ioos:station:TCOON:518:1,2014-01-01T03:54:00Z,29.5150,-94.5133,0.0,3.6,66.0,4.5,'11111222,11111222,11111222' 
TCOON,ioos:station:TCOON:518:1,2014-01-01T04:00:00Z,29.5150,-94.5133,0.0,3.6,49.0,4.2,'11111222,11111222,11111222' 
TCOON,ioos:station:TCOON:518:1,2014-01-01T04:06:00Z,29.5150,-94.5133,0.0,3.6,49.0,4.2,'1111122,1111122,1111122' 
TCOON,ioos:station:TCOON:518:1,2014-01-01T04:12:00Z,29.5150,-94.5133,0.0,4.1,70.0,4.6,'11111222,11111222,11111222' 
TCOON,ioos:station:TCOON:518:1,2014-01-01T04:18:00Z,29.5150,-94.5133,0.0,4.3,75.0,4.9,'11111222,11111222,11111222' 
TCOON,ioos:station:TCOON:518:1,2014-01-01T04:24:00Z,29.5150,-94.5133,0.0,3.6,87.0,4.6,'11111222,11111222,11111222' 
TCOON,ioos:station:TCOON:518:1,2014-01-01T04:30:00Z,29.5150,-94.5133,0.0,3.6,73.0,4.3,'11111222,11111222,11111222' 
TCOON,ioos:station:TCOON:518:1,2014-01-01T04:36:00Z,29.5150,-94.5133,0.0,3.6,73.0,4.3,'1111122,1111122,1111122' 
TCOON,ioos:station:TCOON:518:1,2014-01-01T04:42:00Z,29.5150,-94.5133,0.0,3.5,38.0,3.9,'11111222,11111222,11111222' 
TCOON,ioos:station:TCOON:518:1,2014-01-01T04:48:00Z,29.5150,-94.5133,0.0,2.8,51.0,4.0,'11111222,11111222,11111222' 
TCOON,ioos:station:TCOON:518:1,2014-01-01T04:54:00Z,29.5150,-94.5133,0.0,3.3,60.0,3.8,'11111222,11111222,11111222' 
TCOON,ioos:station:TCOON:518:1,2014-01-01T05:00:00Z,29.5150,-94.5133,0.0,3.4,68.0,3.9,'11111222,11111222,11111222' 
TCOON,ioos:station:TCOON:518:1,2014-01-01T05:06:00Z,29.5150,-94.5133,0.0,3.4,68.0,3.9,'1111122,1111122,1111122' 
TCOON,ioos:station:TCOON:518:1,2014-01-01T05:12:00Z,29.5150,-94.5133,0.0,2.9,59.0,3.5,'11111222,11111222,11111222' 
TCOON,ioos:station:TCOON:518:1,2014-01-01T05:18:00Z,29.5150,-94.5133,0.0,2.5,59.0,3.7,'11111222,11111222,11111222' 
TCOON,ioos:station:TCOON:518:1,2014-01-01T05:24:00Z,29.5150,-94.5133,0.0,2.0,42.0,2.9,'11111222,11111222,11111222' 
TCOON,ioos:station:TCOON:518:1,2014-01-01T05:30:00Z,29.5150,-94.5133,0.0,2.9,32.0,3.5,'11111222,11111222,11111222' 
TCOON,ioos:station:TCOON:518:1,2014-01-01T05:36:00Z,29.5150,-94.5133,0.0,2.9,32.0,3.5,'1111122,1111122,1111122' 
TCOON,ioos:station:TCOON:518:1,2014-01-01T05:42:00Z,29.5150,-94.5133,0.0,3.3,60.0,3.7,'11111222,11111222,11111222' 
TCOON,ioos:station:TCOON:518:1,2014-01-01T05:48:00Z,29.5150,-94.5133,0.0,2.8,58.0,4.0,'11111222,11111222,11111222' 
TCOON,ioos:station:TCOON:518:1,2014-01-01T05:54:00Z,29.5150,-94.5133,0.0,2.8,82.0,3.3,'11111222,11111222,11111222' 
TCOON,ioos:station:TCOON:518:1,2014-01-01T06:00:00Z,29.5150,-94.5133,0.0,2.7,93.0,3.4,'11111222,11111222,11111222' 
TCOON,ioos:station:TCOON:518:1,2014-01-01T06:06:00Z,29.5150,-94.5133,0.0,2.7,93.0,3.4,'1111122,1111122,1111122' 
TCOON,ioos:station:TCOON:518:1,2014-01-01T06:12:00Z,29.5150,-94.5133,0.0,4.2,118.0,5.6,'11111222,11111222,11111222' 
TCOON,ioos:station:TCOON:518:1,2014-01-01T06:18:00Z,29.5150,-94.5133,0.0,4.8,122.0,5.4,'11111222,11111222,11111222' 
TCOON,ioos:station:TCOON:518:1,2014-01-01T06:24:00Z,29.5150,-94.5133,0.0,4.3,119.0,5.7,'11111222,11111222,11111222' 
TCOON,ioos:station:TCOON:518:1,2014-01-01T06:30:00Z,29.5150,-94.5133,0.0,4.3,116.0,5.1,'11111222,11111222,11111222' 
TCOON,ioos:station:TCOON:518:1,2014-01-01T06:36:00Z,29.5150,-94.5133,0.0,4.3,116.0,5.1,'1111122,1111122,1111122' 
TCOON,ioos:station:TCOON:518:1,2014-01-01T06:42:00Z,29.5150,-94.5133,0.0,4.2,123.0,5.3,'11111222,11111222,11111222' 
TCOON,ioos:station:TCOON:518:1,2014-01-01T06:48:00Z,29.5150,-94.5133,0.0,3.9,114.0,5.4,'11111222,11111222,11111222' 
TCOON,ioos:station:TCOON:518:1,2014-01-01T06:54:00Z,29.5150,-94.5133,0.0,3.8,114.0,4.3,'11111222,11111222,11111222' 
TCOON,ioos:station:TCOON:518:1,2014-01-01T07:00:00Z,29.5150,-94.5133,0.0,3.5,115.0,4.0,'11111222,11111222,11111222' 
TCOON,ioos:station:TCOON:518:1,2014-01-01T07:06:00Z,29.5150,-94.5133,0.0,3.5,115.0,4.0,'1111122,1111122,1111122' 
TCOON,ioos:station:TCOON:518:1,2014-01-01T07:12:00Z,29.5150,-94.5133,0.0,2.7,113.0,3.5,'11111222,11111222,11111222' 
TCOON,ioos:station:TCOON:518:1,2014-01-01T07:18:00Z,29.5150,-94.5133,0.0,2.4,112.0,2.8,'11111222,11111222,11111222' 
TCOON,ioos:station:TCOON:518:1,2014-01-01T07:24:00Z,29.5150,-94.5133,0.0,3.6,114.0,4.1,'11111222,11111222,11111222' 
TCOON,ioos:station:TCOON:518:1,2014-01-01T07:30:00Z,29.5150,-94.5133,0.0,3.0,111.0,3.8,'11111222,11111222,11111222' 
TCOON,ioos:station:TCOON:518:1,2014-01-01T07:36:00Z,29.5150,-94.5133,0.0,3.0,111.0,3.8,'1111122,1111122,1111122' 
TCOON,ioos:station:TCOON:518:1,2014-01-01T07:42:00Z,29.5150,-94.5133,0.0,3.4,112.0,4.0,'11111222,11111222,11111222' 
TCOON,ioos:station:TCOON:518:1,2014-01-01T07:48:00Z,29.5150,-94.5133,0.0,3.4,112.0,4.0,'11111222,11111222,11111222' 
TCOON,ioos:station:TCOON:518:1,2014-01-01T07:54:00Z,29.5150,-94.5133,0.0,2.9,112.0,3.8,'11111222,11111222,11111222' 
TCOON,ioos:station:TCOON:518:1,2014-01-01T08:00:00Z,29.5150,-94.5133,0.0,2.1,108.0,2.7,'11111222,11111222,11111222' 
TCOON,ioos:station:TCOON:518:1,2014-01-01T08:06:00Z,29.5150,-94.5133,0.0,2.1,108.0,2.7,'1111122,1111122,1111122' 
TCOON,ioos:station:TCOON:518:1,2014-01-01T08:12:00Z,29.5150,-94.5133,0.0,1.7,77.0,2.2,'11111222,11111222,11111222' 
TCOON,ioos:station:TCOON:518:1,2014-01-01T08:18:00Z,29.5150,-94.5133,0.0,1.9,25.0,2.4,'11111222,11111222,11111222' 
TCOON,ioos:station:TCOON:518:1,2014-01-01T08:24:00Z,29.5150,-94.5133,0.0,2.0,18.0,2.5,'11111222,11111222,11111222' 
TCOON,ioos:station:TCOON:518:1,2014-01-01T08:30:00Z,29.5150,-94.5133,0.0,2.3,12.0,2.6,'11111222,11111222,11111222' 
TCOON,ioos:station:TCOON:518:1,2014-01-01T08:36:00Z,29.5150,-94.5133,0.0,2.3,12.0,2.6,'1111122,1111122,1111122' 
TCOON,ioos:station:TCOON:518:1,2014-01-01T08:42:00Z,29.5150,-94.5133,0.0,1.6,41.0,3.0,'11111222,11111222,11111222' 
TCOON,ioos:station:TCOON:518:1,2014-01-01T08:48:00Z,29.5150,-94.5133,0.0,2.9,65.0,3.3,'11111222,11111222,11111222' 
TCOON,ioos:station:TCOON:518:1,2014-01-01T08:54:00Z,29.5150,-94.5133,0.0,1.8,57.0,2.7,'11111222,11111222,11111222' 
TCOON,ioos:station:TCOON:518:1,2014-01-01T09:00:00Z,29.5150,-94.5133,0.0,1.9,77.0,2.4,'11111222,11111222,11111222' 
TCOON,ioos:station:TCOON:518:1,2014-01-01T09:06:00Z,29.5150,-94.5133,0.0,1.9,77.0,2.4,'1111122,1111122,1111122' 
TCOON,ioos:station:TCOON:518:1,2014-01-01T09:12:00Z,29.5150,-94.5133,0.0,1.2,58.0,2.0,'11111222,11111222,11111222' 
TCOON,ioos:station:TCOON:518:1,2014-01-01T09:18:00Z,29.5150,-94.5133,0.0,2.0,54.0,2.3,'11111222,11111222,11111222' 
TCOON,ioos:station:TCOON:518:1,2014-01-01T09:24:00Z,29.5150,-94.5133,0.0,1.8,56.0,2.5,'11111222,11111222,11111222' 
TCOON,ioos:station:TCOON:518:1,2014-01-01T09:30:00Z,29.5150,-94.5133,0.0,1.9,61.0,2.2,'11111222,11111222,11111222' 
TCOON,ioos:station:TCOON:518:1,2014-01-01T09:36:00Z,29.5150,-94.5133,0.0,1.9,61.0,2.2,'1111122,1111122,1111122' 
TCOON,ioos:station:TCOON:518:1,2014-01-01T09:42:00Z,29.5150,-94.5133,0.0,1.4,52.0,1.9,'11111222,11111222,11111222' 
TCOON,ioos:station:TCOON:518:1,2014-01-01T09:48:00Z,29.5150,-94.5133,0.0,1.4,70.0,1.7,'11111222,11111222,11111222' 
TCOON,ioos:station:TCOON:518:1,2014-01-01T09:54:00Z,29.5150,-94.5133,0.0,0.0,63.0,1.5,'11111222,11111222,11111222' 
TCOON,ioos:station:TCOON:518:1,2014-01-01T10:00:00Z,29.5150,-94.5133,0.0,0.0,54.0,0.1,'11111222,11111222,11111222' 
TCOON,ioos:station:TCOON:518:1,2014-01-01T10:06:00Z,29.5150,-94.5133,0.0,0.0,54.0,0.1,'1114422,1111122,1111122' 
TCOON,ioos:station:TCOON:518:1,2014-01-01T10:12:00Z,29.5150,-94.5133,0.0,2.1,107.0,2.8,'11111222,11111222,11111222' 
TCOON,ioos:station:TCOON:518:1,2014-01-01T10:18:00Z,29.5150,-94.5133,0.0,2.7,117.0,3.3,'11111222,11111222,11111222' 
TCOON,ioos:station:TCOON:518:1,2014-01-01T10:24:00Z,29.5150,-94.5133,0.0,2.8,127.0,2.9,'11111222,11111222,11111222' 
TCOON,ioos:station:TCOON:518:1,2014-01-01T10:30:00Z,29.5150,-94.5133,0.0,2.1,142.0,2.9,'11111222,11111222,11111222' 
TCOON,ioos:station:TCOON:518:1,2014-01-01T10:36:00Z,29.5150,-94.5133,0.0,2.1,142.0,2.9,'1111122,1111122,1111122' 
TCOON,ioos:station:TCOON:518:1,2014-01-01T10:42:00Z,29.5150,-94.5133,0.0,1.7,144.0,2.0,'11111222,11111222,11111222' 
TCOON,ioos:station:TCOON:518:1,2014-01-01T10:48:00Z,29.5150,-94.5133,0.0,1.6,137.0,2.2,'11111222,11111222,11111222' 
TCOON,ioos:station:TCOON:518:1,2014-01-01T10:54:00Z,29.5150,-94.5133,0.0,0.0,131.0,1.6,'11111222,11111222,11111222' 
TCOON,ioos:station:TCOON:518:1,2014-01-01T11:00:00Z,29.5150,-94.5133,0.0,0.0,136.0,0.0,'11111222,11111222,11111222' 
TCOON,ioos:station:TCOON:518:1,2014-01-01T11:06:00Z,29.5150,-94.5133,0.0,0.0,136.0,0.0,'1114422,1111122,1114422' 
TCOON,ioos:station:TCOON:518:1,2014-01-01T11:12:00Z,29.5150,-94.5133,0.0,0.0,133.0,0.0,'11111222,11111222,11111222' 
TCOON,ioos:station:TCOON:518:1,2014-01-01T11:18:00Z,29.5150,-94.5133,0.0,1.6,17.0,1.9,'11111222,11111222,11111222' 
TCOON,ioos:station:TCOON:518:1,2014-01-01T11:24:00Z,29.5150,-94.5133,0.0,2.2,5.0,2.7,'11111222,11111222,11111222' 
TCOON,ioos:station:TCOON:518:1,2014-01-01T11:30:00Z,29.5150,-94.5133,0.0,2.5,6.0,2.9,'11111222,11111222,11111222' 
TCOON,ioos:station:TCOON:518:1,2014-01-01T11:36:00Z,29.5150,-94.5133,0.0,2.5,6.0,2.9,'1111122,1111122,1111122' 
TCOON,ioos:station:TCOON:518:1,2014-01-01T11:42:00Z,29.5150,-94.5133,0.0,3.2,9.0,3.5,'11111222,11111222,11111222' 
TCOON,ioos:station:TCOON:518:1,2014-01-01T11:48:00Z,29.5150,-94.5133,0.0,2.3,10.0,3.4,'11111222,11111222,11111222' 
TCOON,ioos:station:TCOON:518:1,2014-01-01T11:54:00Z,29.5150,-94.5133,0.0,3.2,19.0,3.4,'11111222,11111222,11111222' 
TCOON,ioos:station:TCOON:518:1,2014-01-01T12:00:00Z,29.5150,-94.5133,0.0,2.8,26.0,3.4,'11111222,11111222,11111222' 
TCOON,ioos:station:TCOON:518:1,2014-01-01T12:06:00Z,29.5150,-94.5133,0.0,2.8,26.0,3.4,'1111122,1111122,1111122' 
TCOON,ioos:station:TCOON:518:1,2014-01-01T12:12:00Z,29.5150,-94.5133,0.0,2.4,21.0,3.1,'11111222,11111222,11111222' 
TCOON,ioos:station:TCOON:518:1,2014-01-01T12:18:00Z,29.5150,-94.5133,0.0,2.7,27.0,2.9,'11111222,11111222,11111222' 
TCOON,ioos:station:TCOON:518:1,2014-01-01T12:24:00Z,29.5150,-94.5133,0.0,2.6,29.0,3.1,'11111222,11111222,11111222' 
TCOON,ioos:station:TCOON:518:1,2014-01-01T12:30:00Z,29.5150,-94.5133,0.0,2.7,31.0,3.1,'11111222,11111222,11111222' 
TCOON,ioos:station:TCOON:518:1,2014-01-01T12:36:00Z,29.5150,-94.5133,0.0,2.7,31.0,3.1,'1111122,1111122,1111122' 
TCOON,ioos:station:TCOON:518:1,2014-01-01T12:42:00Z,29.5150,-94.5133,0.0,3.6,34.0,3.9,'11111222,11111222,11111222' 
TCOON,ioos:station:TCOON:518:1,2014-01-01T12:48:00Z,29.5150,-94.5133,0.0,3.5,28.0,4.1,'11111222,11111222,11111222' 
TCOON,ioos:station:TCOON:518:1,2014-01-01T12:54:00Z,29.5150,-94.5133,0.0,3.7,26.0,4.2,'11111222,11111222,11111222' 
TCOON,ioos:station:TCOON:518:1,2014-01-01T13:00:00Z,29.5150,-94.5133,0.0,3.2,31.0,4.2,'11111222,11111222,11111222' 
TCOON,ioos:station:TCOON:518:1,2014-01-01T13:06:00Z,29.5150,-94.5133,0.0,3.2,31.0,4.2,'1111122,1111122,1111122' 
TCOON,ioos:station:TCOON:518:1,2014-01-01T13:12:00Z,29.5150,-94.5133,0.0,3.0,41.0,3.6,'11111222,11111222,11111222' 
TCOON,ioos:station:TCOON:518:1,2014-01-01T13:18:00Z,29.5150,-94.5133,0.0,3.1,50.0,3.5,'11111222,11111222,11111222' 
TCOON,ioos:station:TCOON:518:1,2014-01-01T13:24:00Z,29.5150,-94.5133,0.0,3.0,50.0,3.6,'11111222,11111222,11111222' 
TCOON,ioos:station:TCOON:518:1,2014-01-01T13:30:00Z,29.5150,-94.5133,0.0,2.5,47.0,3.4,'11111222,11111222,11111222' 
TCOON,ioos:station:TCOON:518:1,2014-01-01T13:36:00Z,29.5150,-94.5133,0.0,2.5,47.0,3.4,'1111122,1111122,1111122' 
TCOON,ioos:station:TCOON:518:1,2014-01-01T13:42:00Z,29.5150,-94.5133,0.0,2.5,49.0,3.0,'11111222,11111222,11111222' 
TCOON,ioos:station:TCOON:518:1,2014-01-01T13:48:00Z,29.5150,-94.5133,0.0,1.6,57.0,2.7,'11111222,11111222,11111222' 
TCOON,ioos:station:TCOON:518:1,2014-01-01T13:54:00Z,29.5150,-94.5133,0.0,0.1,62.0,1.9,'11111222,11111222,11111222' 
TCOON,ioos:station:TCOON:518:1,2014-01-01T14:00:00Z,29.5150,-94.5133,0.0,1.6,39.0,1.9,'11111222,11111222,11111222' 
TCOON,ioos:station:TCOON:518:1,2014-01-01T14:06:00Z,29.5150,-94.5133,0.0,1.6,39.0,1.9,'1111122,1111122,1111122' 
TCOON,ioos:station:TCOON:518:1,2014-01-01T14:12:00Z,29.5150,-94.5133,0.0,2.1,45.0,2.9,'11111222,11111222,11111222' 
TCOON,ioos:station:TCOON:518:1,2014-01-01T14:18:00Z,29.5150,-94.5133,0.0,2.2,42.0,2.6,'11111222,11111222,11111222' 
TCOON,ioos:station:TCOON:518:1,2014-01-01T14:24:00Z,29.5150,-94.5133,0.0,2.2,38.0,2.7,'11111222,11111222,11111222' 
TCOON,ioos:station:TCOON:518:1,2014-01-01T14:30:00Z,29.5150,-94.5133,0.0,2.6,47.0,3.1,'11111222,11111222,11111222' 
TCOON,ioos:station:TCOON:518:1,2014-01-01T14:36:00Z,29.5150,-94.5133,0.0,2.6,47.0,3.1,'1111122,1111122,1111122' 
TCOON,ioos:station:TCOON:518:1,2014-01-01T14:42:00Z,29.5150,-94.5133,0.0,2.0,48.0,2.7,'11111222,11111222,11111222' 
TCOON,ioos:station:TCOON:518:1,2014-01-01T14:48:00Z,29.5150,-94.5133,0.0,2.0,32.0,2.4,'11111222,11111222,11111222' 
TCOON,ioos:station:TCOON:518:1,2014-01-01T14:54:00Z,29.5150,-94.5133,0.0,2.8,41.0,3.0,'11111222,11111222,11111222' 
TCOON,ioos:station:TCOON:518:1,2014-01-01T15:00:00Z,29.5150,-94.5133,0.0,2.3,41.0,3.0,'11111222,11111222,11111222' 
TCOON,ioos:station:TCOON:518:1,2014-01-01T15:06:00Z,29.5150,-94.5133,0.0,2.3,41.0,3.0,'1111122,1111122,1111122' 
TCOON,ioos:station:TCOON:518:1,2014-01-01T15:12:00Z,29.5150,-94.5133,0.0,1.1,49.0,2.4,'11111222,11111222,11111222' 
TCOON,ioos:station:TCOON:518:1,2014-01-01T15:18:00Z,29.5150,-94.5133,0.0,1.6,58.0,2.1,'11111222,11111222,11111222' 
TCOON,ioos:station:TCOON:518:1,2014-01-01T15:24:00Z,29.5150,-94.5133,0.0,1.5,54.0,2.0,'11111222,11111222,11111222' 
TCOON,ioos:station:TCOON:518:1,2014-01-01T15:30:00Z,29.5150,-94.5133,0.0,0.0,46.0,1.6,'11111222,11111222,11111222' 
TCOON,ioos:station:TCOON:518:1,2014-01-01T15:36:00Z,29.5150,-94.5133,0.0,0.0,46.0,1.6,'1114422,1111122,1111122' 
TCOON,ioos:station:TCOON:518:1,2014-01-01T15:42:00Z,29.5150,-94.5133,0.0,1.4,28.0,1.9,'11111222,11111222,11111222' 
TCOON,ioos:station:TCOON:518:1,2014-01-01T15:48:00Z,29.5150,-94.5133,0.0,1.8,33.0,2.1,'11111222,11111222,11111222' 
TCOON,ioos:station:TCOON:518:1,2014-01-01T15:54:00Z,29.5150,-94.5133,0.0,1.8,46.0,2.0,'11111222,11111222,11111222' 
TCOON,ioos:station:TCOON:518:1,2014-01-01T16:00:00Z,29.5150,-94.5133,0.0,1.6,41.0,2.0,'11111222,11111222,11111222' 
TCOON,ioos:station:TCOON:518:1,2014-01-01T16:06:00Z,29.5150,-94.5133,0.0,1.6,41.0,2.0,'1111122,1111122,1111122' 
TCOON,ioos:station:TCOON:518:1,2014-01-01T16:12:00Z,29.5150,-94.5133,0.0,2.3,64.0,2.6,'11111222,11111222,11111222' 
TCOON,ioos:station:TCOON:518:1,2014-01-01T16:18:00Z,29.5150,-94.5133,0.0,2.7,80.0,2.9,'11111222,11111222,11111222' 
TCOON,ioos:station:TCOON:518:1,2014-01-01T16:24:00Z,29.5150,-94.5133,0.0,3.3,100.0,3.9,'11111222,11111222,11111222' 
TCOON,ioos:station:TCOON:518:1,2014-01-01T16:30:00Z,29.5150,-94.5133,0.0,3.7,97.0,4.3,'11111222,11111222,11111222' 
TCOON,ioos:station:TCOON:518:1,2014-01-01T16:36:00Z,29.5150,-94.5133,0.0,3.7,97.0,4.3,'1111122,1111122,1111122' 
TCOON,ioos:station:TCOON:518:1,2014-01-01T16:42:00Z,29.5150,-94.5133,0.0,3.2,95.0,4.0,'11111222,11111222,11111222' 
TCOON,ioos:station:TCOON:518:1,2014-01-01T16:48:00Z,29.5150,-94.5133,0.0,3.6,92.0,4.0,'11111222,11111222,11111222' 
TCOON,ioos:station:TCOON:518:1,2014-01-01T16:54:00Z,29.5150,-94.5133,0.0,2.9,92.0,4.2,'11111222,11111222,11111222' 
TCOON,ioos:station:TCOON:518:1,2014-01-01T17:00:00Z,29.5150,-94.5133,0.0,2.7,91.0,3.5,'11111222,11111222,11111222' 
TCOON,ioos:station:TCOON:518:1,2014-01-01T17:06:00Z,29.5150,-94.5133,0.0,2.7,91.0,3.5,'1111122,1111122,1111122' 
TCOON,ioos:station:TCOON:518:1,2014-01-01T17:12:00Z,29.5150,-94.5133,0.0,2.7,85.0,3.1,'11111222,11111222,11111222' 
TCOON,ioos:station:TCOON:518:1,2014-01-01T17:18:00Z,29.5150,-94.5133,0.0,2.9,86.0,3.2,'11111222,11111222,11111222' 
TCOON,ioos:station:TCOON:518:1,2014-01-01T17:24:00Z,29.5150,-94.5133,0.0,3.0,81.0,3.4,'11111222,11111222,11111222' 
TCOON,ioos:station:TCOON:518:1,2014-01-01T17:30:00Z,29.5150,-94.5133,0.0,3.2,85.0,3.8,'11111222,11111222,11111222' 
TCOON,ioos:station:TCOON:518:1,2014-01-01T17:36:00Z,29.5150,-94.5133,0.0,3.2,85.0,3.8,'1111122,1111122,1111122' 
TCOON,ioos:station:TCOON:518:1,2014-01-01T17:42:00Z,29.5150,-94.5133,0.0,3.1,94.0,3.5,'11111222,11111222,11111222' 
TCOON,ioos:station:TCOON:518:1,2014-01-01T17:48:00Z,29.5150,-94.5133,0.0,3.1,105.0,3.6,'11111222,11111222,11111222' 
TCOON,ioos:station:TCOON:518:1,2014-01-01T17:54:00Z,29.5150,-94.5133,0.0,2.8,97.0,3.6,'11111222,11111222,11111222' 
TCOON,ioos:station:TCOON:518:1,2014-01-01T18:00:00Z,29.5150,-94.5133,0.0,3.2,93.0,3.7,'11111222,11111222,11111222' 
TCOON,ioos:station:TCOON:518:1,2014-01-01T18:06:00Z,29.5150,-94.5133,0.0,3.2,93.0,3.7,'1111122,1111122,1111122' 
TCOON,ioos:station:TCOON:518:1,2014-01-01T18:12:00Z,29.5150,-94.5133,0.0,2.6,89.0,3.4,'11111222,11111222,11111222' 
TCOON,ioos:station:TCOON:518:1,2014-01-01T18:18:00Z,29.5150,-94.5133,0.0,3.0,88.0,3.4,'11111222,11111222,11111222' 
TCOON,ioos:station:TCOON:518:1,2014-01-01T18:24:00Z,29.5150,-94.5133,0.0,3.6,93.0,3.9,'11111222,11111222,11111222' 
TCOON,ioos:station:TCOON:518:1,2014-01-01T18:30:00Z,29.5150,-94.5133,0.0,3.7,99.0,4.2,'11111222,11111222,11111222' 
TCOON,ioos:station:TCOON:518:1,2014-01-01T18:36:00Z,29.5150,-94.5133,0.0,3.7,99.0,4.2,'1111122,1111122,1111122' 
TCOON,ioos:station:TCOON:518:1,2014-01-01T18:42:00Z,29.5150,-94.5133,0.0,3.7,97.0,4.9,'11111222,11111222,11111222' 
TCOON,ioos:station:TCOON:518:1,2014-01-01T18:48:00Z,29.5150,-94.5133,0.0,3.7,97.0,4.5,'11111222,11111222,11111222' 
TCOON,ioos:station:TCOON:518:1,2014-01-01T18:54:00Z,29.5150,-94.5133,0.0,4.0,98.0,4.6,'11111222,11111222,11111222' 
TCOON,ioos:station:TCOON:518:1,2014-01-01T19:00:00Z,29.5150,-94.5133,0.0,4.6,99.0,5.1,'11111222,11111222,11111222' 
TCOON,ioos:station:TCOON:518:1,2014-01-01T19:06:00Z,29.5150,-94.5133,0.0,4.6,99.0,5.1,'1111122,1111122,1111122' 
TCOON,ioos:station:TCOON:518:1,2014-01-01T19:12:00Z,29.5150,-94.5133,0.0,4.3,95.0,4.8,'11111222,11111222,11111222' 
TCOON,ioos:station:TCOON:518:1,2014-01-01T19:18:00Z,29.5150,-94.5133,0.0,3.8,93.0,5.3,'11111222,11111222,11111222' 
TCOON,ioos:station:TCOON:518:1,2014-01-01T19:24:00Z,29.5150,-94.5133,0.0,4.0,94.0,4.6,'11111222,11111222,11111222' 
TCOON,ioos:station:TCOON:518:1,2014-01-01T19:30:00Z,29.5150,-94.5133,0.0,4.5,99.0,5.3,'11111222,11111222,11111222' 
TCOON,ioos:station:TCOON:518:1,2014-01-01T19:36:00Z,29.5150,-94.5133,0.0,4.5,99.0,5.3,'1111122,1111122,1111122' 
TCOON,ioos:station:TCOON:518:1,2014-01-01T19:42:00Z,29.5150,-94.5133,0.0,4.4,100.0,4.8,'11111222,11111222,11111222' 
TCOON,ioos:station:TCOON:518:1,2014-01-01T19:48:00Z,29.5150,-94.5133,0.0,4.5,97.0,5.2,'11111222,11111222,11111222' 
TCOON,ioos:station:TCOON:518:1,2014-01-01T19:54:00Z,29.5150,-94.5133,0.0,4.5,98.0,5.1,'11111222,11111222,11111222' 
TCOON,ioos:station:TCOON:518:1,2014-01-01T20:00:00Z,29.5150,-94.5133,0.0,5.3,103.0,5.9,'11111222,11111222,11111222' 
TCOON,ioos:station:TCOON:518:1,2014-01-01T20:06:00Z,29.5150,-94.5133,0.0,5.3,103.0,5.9,'1111122,1111122,1111122' 
TCOON,ioos:station:TCOON:518:1,2014-01-01T20:12:00Z,29.5150,-94.5133,0.0,4.1,94.0,5.2,'11111222,11111222,11111222' 
TCOON,ioos:station:TCOON:518:1,2014-01-01T20:18:00Z,29.5150,-94.5133,0.0,3.9,95.0,5.1,'11111222,11111222,11111222' 
TCOON,ioos:station:TCOON:518:1,2014-01-01T20:24:00Z,29.5150,-94.5133,0.0,3.6,94.0,4.4,'11111222,11111222,11111222' 
TCOON,ioos:station:TCOON:518:1,2014-01-01T20:30:00Z,29.5150,-94.5133,0.0,4.0,94.0,4.6,'11111222,11111222,11111222' 